Location: D�nning
(49.2479°N, 12.8491°E)
Time: 06:24:55
(UTC+00:00)

Cosmos 1437 - Pass Details

Date: 18 September 2020
Orbit: 366 x 369 km, 81.2° (Epoch: 22 October)

Event Time Altitude Azimuth Distance (km) Brightness Sun altitude
Rises 18:09:20 0° 345° (NNW) 2,255 6.9 -9.7°
Reaches altitude 10° 18:11:21 10° 342° (NNW) 1,398 5.9 -10.0°
Maximum altitude 18:14:21 61° 261° (W) 435 3.1 -10.5°
Drops below altitude 10° 18:17:18 10° 180° (S) 1,384 5.2 -10.9°
Sets 18:19:17 0° 177° (S) 2,229 6.2 -11.3°
